Location: Hlohovi?ky
(49.8934°N, 13.6739°E)
Time: 20:15:56
(UTC+00:00)

Cosmos 1733 - Pass Details

Date: 19 May 2025
Orbit: 374 x 381 km, 82.5° (Epoch: 20 June)

Event Time Altitude Azimuth Distance (km) Brightness Sun altitude
Rises 20:32:37 0° 345° (NNW) 2,312 7.9 -12.7°
Reaches altitude 10° 20:34:40 10° 340° (NNW) 1,448 6.8 -12.9°
Maximum altitude 20:37:42 48° 264° (W) 525 3.4 -13.2°
Enters shadow 20:39:54 17° 194° (SSW) 1,107 4.5 -13.4°
